Terminal Aerodrome Forecast
Issued by NWS Binghamton, NY

Home | Current Version | Previous Version | Text Only | Print | Product List | Glossary On
Versions: 1 2 3 4 5 6 7 8 9 10 11 12 13 14 15 16 17
004
FTUS41 KBGM 240315 AAA
TAFSYR
TAF AMD
KSYR 240315Z 2403/2424 34006KT P6SM SCT150
     FM240500 VRB03KT P6SM SKC
     FM241400 34005KT P6SM SKC
     FM242000 VRB03KT P6SM BKN100=

USA.gov is the U.S. government's official web portal to all federal, state and local government web resources and services.